Location: Unspecified
(0.0000°N, 0.0000°E)
Time: 22:39:48
(UTC+00:00)

Envisat - Pass Details

Date: 17 February 2018
Orbit: 764 x 766 km, 98.2° (Epoch: 21 May)

Event Time Altitude Azimuth Distance (km) Brightness Sun altitude
Rises 19:28:35 0° 154° (SSE) 3,227 6.1 -18.2°
Reaches altitude 10° 19:31:01 10° 147° (SSE) 2,299 5.3 -18.8°
Maximum altitude 19:35:45 40° 78° (ENE) 1,108 3.3 -20.0°
Enters shadow 19:35:49 40° 76° (ENE) 1,108 3.3 -20.0°
Exits shadow 19:40:32 10° 9° (N) 2,320 5.3 -21.2°
Sets 19:42:52 0° 2° (N) 3,213 6.1 -21.7°
